Wind_Speed
9 9 9 9 8 7 7 7 7 7 7 7 7 7 7 7 7 8 9 9 10 10 9 8 7 7 7 7 7 8 9 9 9 10 13 10 8 13 11 9 10 11 14 14 13 14 14 14 14 13 12 12 11 9 7 6 5 3 2 1 2 1 2 2 2 8 11 15 15 14 16 15 13 13 13 13 13 13 13 12 13 15 19 23 26 28 26 25
9 9 9 9 9 8 8 7 7 7 7 7 8 8 8 8 8 8 8 8 9 9 10 9 8 7 7 7 7 8 8 8 9 12 13 10 10 11 11 11 10 11 14 16 16 17 15 14 14 13 13 11 11 8 6 5 2 2 2 1 2 1 4 2 4 12 14 16 17 15 16 14 14 17 14 12 13 14 13 15 18 22 24 27 28 27 25 25
10 9 8 8 8 8 8 8 8 8 8 8 8 8 9 8 8 8 8 8 8 8 9 8 8 8 7 7 7 7 7 8 11 12 11 9 12 11 10 12 11 11 15 16 16 16 14 12 12 13 12 9 11 8 5 5 3 1 3 1 2 2 4 3 7 13 17 20 19 15 14 14 15 16 14 13 15 14 13 16 20 25 27 28 28 26 26 25
11 9 8 8 8 8 8 8 9 9 9 10 10 10 10 10 9 9 9 9 8 8 7 7 7 7 7 7 6 6 7 8 7 5 6 7 10 12 11 12 11 12 15 14 14 15 13 10 11 12 11 8 9 8 7 7 5 3 2 1 1 3 2 6 12 15 18 21 21 19 16 14 15 14 13 14 13 11 13 18 21 25 28 29 29 27 25 24
11 10 8 8 7 7 7 7 8 9 10 11 11 11 11 11 10 10 9 9 8 7 6 6 6 6 7 6 6 5 6 5 2 1 7 8 9 12 11 11 11 12 15 14 13 14 13 12 12 12 11 7 7 9 6 6 5 4 2 4 3 5 3 7 17 19 16 17 19 20 17 15 16 14 13 13 10 9 13 19 22 26 28 29 29 27 25 24
11 10 9 8 7 6 6 6 6 8 9 11 11 12 12 11 11 11 10 9 8 7 5 5 5 5 5 5 6 5 5 3 4 4 10 8 9 11 10 11 12 14 16 15 14 14 13 12 13 12 11 7 5 8 3 7 8 3 3 4 3 6 4 3 15 20 16 17 17 16 16 16 16 15 12 11 11 12 15 19 23 26 26 27 27 27 26 24
11 10 9 9 7 6 5 4 5 7 9 10 11 12 12 11 11 10 10 9 8 6 5 4 4 4 4 4 5 5 10 6 4 5 7 6 9 9 10 12 14 16 17 16 15 14 12 13 14 11 9 6 3 6 5 11 11 4 4 5 4 7 6 5 11 17 16 16 15 15 17 16 16 15 11 12 15 16 17 21 24 25 25 25 25 25 24 23
11 10 9 8 7 6 5 5 6 7 9 10 11 11 11 11 10 10 9 8 7 6 4 3 4 3 4 3 4 9 11 4 4 6 6 4 8 9 12 15 15 17 17 17 16 13 12 13 14 10 7 5 2 6 10 9 8 5 4 5 8 9 11 12 12 15 16 14 15 16 15 15 16 14 13 14 16 18 20 23 24 25 25 24 24 24 23 22
10 9 9 8 7 6 6 6 7 8 9 10 11 11 11 11 10 9 8 7 6 5 3 3 3 3 3 1 5 10 4 4 5 7 4 2 8 10 14 15 16 16 17 17 16 13 11 12 13 9 5 5 8 8 6 5 3 7 6 7 9 11 13 14 15 16 15 10 12 16 12 13 16 14 13 15 17 19 21 23 24 25 24 23 23 22 21 21
10 9 8 7 7 7 6 7 8 9 11 11 12 11 11 11 10 9 7 6 4 3 2 2 2 2 3 2 8 8 4 6 4 5 2 4 8 9 13 14 15 16 16 16 16 14 12 11 10 8 5 7 11 7 3 4 1 9 12 10 8 10 11 9 6 12 15 6 5 12 13 13 13 9 9 14 18 20 22 24 24 24 23 22 22 21 20 20
9 8 8 7 6 6 6 8 9 10 12 12 12 11 10 10 10 8 6 4 3 2 1 1 1 3 2 5 12 5 6 4 0 1 3 7 8 10 12 13 14 15 15 15 16 14 13 11 8 8 6 4 8 7 5 3 1 7 11 10 8 8 10 12 9 12 12 5 3 7 12 11 5 5 10 17 19 20 22 24 24 23 22 22 22 21 20 19
9 8 7 6 6 5 6 9 10 11 12 12 12 10 9 9 9 7 4 3 2 2 1 1 1 2 3 8 13 4 5 2 3 5 6 9 9 10 11 12 13 14 13 13 15 13 13 10 9 12 7 4 7 6 2 3 3 5 6 5 7 7 9 11 9 9 7 5 2 4 9 7 2 7 15 20 20 20 23 24 24 23 22 22 21 20 19 19
8 7 6 6 5 5 8 9 10 11 12 12 11 9 7 7 6 4 2 2 2 2 1 1 2 2 6 7 6 3 0 2 5 7 9 9 9 9 9 11 13 12 12 11 13 11 11 9 9 14 11 9 8 4 2 4 3 3 4 3 5 5 5 6 8 10 8 6 6 4 5 6 6 11 16 19 21 21 22 24 23 23 22 22 21 20 19 19
8 6 5 5 5 6 8 10 11 12 11 11 9 8 7 5 4 2 2 3 3 2 1 1 1 1 6 6 1 4 6 5 6 9 9 9 9 9 9 11 11 10 10 10 11 10 10 9 10 13 13 14 9 6 5 7 3 2 2 4 2 1 3 4 5 9 8 6 6 2 2 7 8 12 16 19 20 20 22 23 23 23 22 22 21 20 19 19
7 5 4 4 4 6 8 10 11 11 10 9 8 7 6 5 4 5 4 4 4 2 2 2 1 1 8 7 1 5 9 8 8 10 9 10 9 9 10 11 10 8 9 8 8 8 9 9 10 11 13 14 11 7 8 7 5 4 1 2 5 3 4 3 4 7 7 7 5 2 3 6 8 13 16 18 20 20 21 22 22 23 22 22 21 20 20 19
7 5 3 4 4 6 8 9 10 9 8 8 8 6 6 6 6 6 5 5 4 2 3 2 2 4 8 3 4 6 9 9 11 11 10 10 8 9 11 10 9 8 8 7 5 7 9 10 12 13 12 9 9 8 7 7 6 5 3 3 2 3 5 5 5 4 6 9 5 2 4 5 8 14 17 18 19 18 20 21 22 22 22 22 21 20 20 19
6 4 3 3 4 5 7 8 8 8 7 8 8 6 5 5 4 4 5 4 4 2 0 0 1 6 8 2 4 8 9 9 12 11 10 9 7 9 11 10 10 9 9 7 6 8 10 12 12 11 10 8 8 8 8 8 5 2 3 1 1 1 4 6 6 5 6 9 7 5 6 7 10 15 16 17 19 18 19 21 21 22 21 21 21 20 20 20
6 4 3 3 4 4 6 7 7 7 7 9 9 6 4 1 1 1 2 4 5 3 3 4 5 6 5 6 7 9 10 10 11 11 10 8 7 9 11 10 10 10 9 9 9 10 11 12 11 8 8 9 8 9 8 6 2 2 1 2 0 3 5 6 7 9 11 10 9 8 7 8 11 14 16 17 18 17 18 20 21 21 21 21 20 21 20 20
5 4 3 3 3 3 4 5 5 5 7 9 9 10 6 2 3 3 1 2 5 4 1 5 7 3 3 8 6 7 10 10 11 10 9 9 8 11 11 8 10 12 11 9 10 12 12 10 10 9 8 10 9 11 9 4 2 4 6 4 3 2 3 4 6 10 13 10 10 9 7 11 12 12 15 17 18 17 18 20 20 20 21 21 20 20 20 20
5 4 3 3 3 3 3 4 4 4 6 7 10 11 7 4 4 4 4 7 10 6 3 4 7 2 3 8 7 8 10 11 11 10 9 10 10 13 11 9 12 12 10 8 9 12 12 9 10 10 10 12 12 14 12 3 4 2 8 6 3 2 1 4 7 10 12 9 10 10 8 11 12 12 14 17 18 17 18 20 20 20 20 20 21 20 20 19
4 4 4 3 2 3 2 3 3 4 5 6 9 10 6 6 4 2 1 9 9 5 4 3 5 4 2 6 7 9 12 11 10 10 10 11 12 13 11 12 11 9 11 10 8 11 11 9 10 13 14 11 11 16 13 4 6 6 6 6 3 4 2 3 6 11 11 6 8 11 9 10 11 11 12 14 15 16 18 21 21 21 20 19 20 21 20 19
4 4 4 2 2 3 3 3 4 5 6 6 7 8 5 8 7 6 8 6 6 3 4 3 4 5 3 5 6 9 12 12 11 11 10 12 15 13 11 12 10 8 11 11 8 9 10 11 13 15 14 8 6 10 9 5 9 9 4 7 4 5 5 3 3 7 9 5 7 13 10 9 9 7 7 10 14 16 18 20 21 22 21 20 19 20 21 20
4 4 4 3 2 2 4 5 5 6 7 7 7 8 6 6 6 6 9 8 3 4 4 6 6 7 8 8 8 12 13 11 12 13 12 13 16 13 10 11 11 9 11 11 9 8 7 11 15 14 12 8 7 8 7 7 9 7 3 4 5 6 5 4 5 8 9 3 4 11 8 5 6 5 5 11 15 14 16 17 19 22 21 20 20 20 21 21
4 4 4 3 2 2 4 5 7 8 7 8 9 9 6 5 8 8 10 9 4 5 3 5 4 6 7 6 11 16 13 10 11 12 13 14 14 10 9 11 11 10 11 12 12 10 10 10 14 16 10 7 10 10 9 8 8 9 7 4 7 11 8 5 8 8 6 1 4 9 5 1 5 6 7 10 13 10 14 14 16 20 21 20 19 20 21 21
4 4 4 3 2 2 5 6 7 7 7 10 10 8 6 7 8 7 10 7 6 6 5 7 4 4 5 5 11 14 10 8 11 12 13 15 13 9 9 11 11 10 10 13 13 11 11 6 8 14 10 7 12 12 11 9 8 9 9 6 5 12 11 6 10 10 3 2 7 9 5 2 6 8 9 10 9 9 12 13 16 20 22 20 20 20 21 21
4 4 4 3 1 2 5 5 3 4 8 9 6 4 5 7 7 7 9 6 6 5 7 8 4 5 7 10 12 10 8 8 10 11 13 13 10 7 8 10 10 9 9 12 9 8 10 6 3 6 6 10 14 11 11 9 8 8 4 6 3 7 11 8 8 9 3 2 6 8 5 2 5 9 11 10 9 9 10 12 16 20 22 21 21 21 22 22
4 5 5 3 2 3 5 4 3 6 8 4 2 5 6 7 7 6 7 4 5 2 5 5 2 4 6 11 14 8 4 9 10 10 12 11 9 8 7 8 8 9 9 10 8 8 9 7 5 8 8 10 11 10 9 8 9 5 4 1 4 5 9 10 9 6 3 4 5 7 6 1 3 8 11 12 11 10 9 11 15 19 22 23 22 21 22 23
4 5 5 3 2 3 4 5 6 8 7 4 5 7 6 8 7 4 6 1 6 1 2 5 4 3 4 11 14 5 4 9 9 10 11 10 10 10 8 8 9 8 8 9 8 7 7 4 6 11 11 9 9 10 9 6 8 4 4 5 6 4 5 9 8 3 2 4 4 7 7 3 2 5 9 11 11 11 11 12 15 20 23 23 23 23 22 23
5 6 5 3 3 3 4 5 6 7 7 6 7 8 7 9 6 6 6 2 3 3 2 5 6 6 8 12 11 6 7 9 6 9 11 10 10 10 7 7 11 7 5 11 9 4 5 7 8 10 10 10 9 11 12 9 8 6 1 6 8 4 3 6 4 2 2 5 3 8 10 4 1 4 8 9 10 12 12 11 15 21 24 23 24 25 24 23
6 6 5 4 3 4 7 7 6 6 7 8 9 8 8 7 6 7 2 4 1 3 5 5 6 9 12 12 9 10 10 5 5 11 11 8 10 11 7 4 10 9 6 12 14 2 3 3 5 7 9 10 8 11 14 10 7 8 4 6 9 5 4 4 3 2 3 6 4 9 13 9 4 4 8 9 11 14 13 11 15 20 23 24 24 25 25 24
7 7 6 5 4 5 8 7 4 5 8 10 9 8 9 6 7 5 4 4 1 5 7 6 7 8 12 10 7 9 10 7 8 10 8 6 10 11 6 4 7 8 7 9 13 7 4 3 4 8 10 10 8 9 11 7 7 10 6 6 7 5 4 4 4 4 5 5 4 12 17 13 6 5 10 11 11 16 16 15 17 19 22 24 25 25 25 24
8 8 7 5 5 5 7 5 4 8 10 10 8 9 9 6 5 1 6 2 3 3 4 4 8 9 10 7 6 8 8 7 9 11 9 8 8 7 8 6 5 7 6 7 10 9 8 7 7 9 12 11 8 6 7 7 8 10 7 8 8 5 6 6 5 6 6 5 4 8 12 9 3 3 11 14 12 15 18 18 20 23 25 25 25 25 25 24
9 9 7 6 6 6 7 6 8 11 10 9 8 9 9 4 1 3 2 2 1 2 1 3 6 7 6 6 6 7 7 6 8 10 9 9 7 9 11 7 7 9 7 6 9 9 8 8 10 10 9 13 12 8 7 7 8 10 9 8 8 6 7 7 6 6 6 6 5 5 4 4 3 3 8 13 13 17 21 21 24 26 27 28 27 26 25 24
9 10 8 7 7 7 7 8 10 10 8 8 8 8 8 3 2 1 0 5 5 3 3 2 4 5 5 7 5 5 5 6 8 9 7 8 7 7 9 4 6 8 6 7 8 8 9 8 12 13 9 12 14 12 10 7 7 11 10 9 8 7 7 6 5 5 5 5 5 4 2 2 2 4 7 11 13 18 20 20 21 22 24 26 27 27 26 25
10 9 8 8 7 7 8 8 10 10 7 8 8 7 5 3 3 1 3 5 2 3 5 3 5 7 7 5 5 6 6 3 7 8 6 8 7 5 7 6 7 9 7 7 5 6 10 7 10 15 11 12 15 15 14 11 6 8 9 10 9 8 7 6 5 5 5 4 4 4 2 3 4 6 9 9 11 18 19 18 17 17 20 23 26 28 27 26
8 8 8 8 7 7 8 7 9 8 6 9 8 4 0 3 5 4 4 3 4 0 4 5 7 7 6 4 4 8 8 4 6 8 6 8 8 5 6 5 5 8 8 5 3 5 9 4 11 12 10 10 12 14 15 12 7 5 8 11 9 8 8 7 8 8 7 6 4 4 3 3 4 4 8 9 9 14 18 20 19 20 24 26 26 28 27 26
7 7 7 6 6 6 7 7 8 7 8 10 6 3 3 3 4 5 3 3 3 2 4 5 4 4 4 5 5 7 7 4 6 8 5 6 4 3 3 4 1 6 7 6 5 4 7 3 9 11 9 8 11 14 15 15 12 6 6 10 9 8 8 6 7 7 7 8 4 7 7 3 3 3 5 10 10 12 13 17 21 23 23 25 26 27 26 26
8 8 8 6 5 6 6 6 6 6 9 9 2 2 3 2 4 5 4 3 2 3 8 4 2 4 4 3 5 8 7 4 6 7 4 4 4 2 3 5 4 5 7 8 7 4 5 5 7 10 9 9 12 12 12 15 17 13 8 6 8 9 8 6 6 6 6 8 6 6 8 6 6 6 7 9 10 13 12 13 17 19 20 23 26 28 28 27
9 10 10 8 4 5 5 4 6 8 10 7 1 1 1 3 5 4 3 3 3 3 6 4 1 3 3 0 3 7 7 4 5 5 4 4 5 5 4 2 5 6 6 10 8 2 4 6 3 7 9 9 10 10 9 11 14 15 11 7 6 7 7 6 7 7 7 7 6 6 7 3 1 4 11 12 10 12 13 12 12 16 21 21 20 23 26 27
11 11 8 9 4 3 3 4 7 10 8 3 2 0 1 1 3 4 3 4 3 2 4 3 2 3 2 2 4 4 4 5 5 4 4 3 3 6 2 2 1 3 4 8 9 3 5 8 4 4 6 7 7 8 10 9 10 12 10 7 7 6 6 6 7 8 8 7 6 6 6 1 3 2 7 11 10 10 12 12 10 14 20 21 21 23 23 24
13 12 6 10 6 4 4 7 7 8 5 1 1 1 2 3 2 3 2 3 3 2 4 4 2 3 2 3 2 3 3 5 5 4 4 5 4 3 4 1 3 3 4 8 8 5 5 7 6 5 6 7 9 10 13 13 10 10 9 9 9 8 7 7 7 8 7 8 6 6 6 3 3 3 1 6 7 9 12 14 14 16 21 22 25 26 23 23
13 7 6 8 7 7 7 8 4 5 4 2 2 3 3 3 5 1 1 3 2 1 2 3 3 2 1 1 2 3 4 3 4 4 5 4 2 5 4 0 4 5 5 6 4 1 3 5 7 7 5 4 7 13 16 14 9 8 10 11 11 9 7 7 8 6 6 8 8 8 7 2 4 2 2 5 6 9 13 14 13 12 15 18 19 21 23 24
12 4 7 6 6 7 10 6 3 4 1 3 2 2 2 3 3 1 1 3 2 1 1 1 1 2 2 2 4 4 3 0 1 1 2 5 6 6 3 1 3 5 5 6 1 4 3 5 7 8 5 2 3 8 10 10 8 9 10 10 11 11 9 8 8 6 6 9 8 8 7 1 3 3 4 7 8 10 12 15 17 16 16 18 18 18 20 22
10 3 6 7 6 10 10 4 3 3 3 2 3 3 2 1 3 3 3 2 2 2 2 2 2 2 1 3 5 2 1 2 1 1 0 4 6 4 2 2 4 5 3 6 5 3 3 5 5 7 7 6 6 6 6 9 9 8 9 9 11 14 14 11 9 7 7 9 9 9 6 2 3 4 5 7 9 9 10 13 19 19 18 19 18 19 19 19
7 2 3 6 8 11 10 5 5 2 5 4 3 4 4 3 2 3 4 3 2 4 2 1 2 2 0 2 4 1 2 4 2 1 1 1 4 3 2 2 3 4 4 7 9 5 4 3 5 7 7 7 6 4 4 6 7 8 10 11 14 17 15 11 9 9 9 7 8 9 4 4 4 4 5 7 7 10 11 11 13 15 15 17 17 18 19 20
7 4 4 7 10 12 8 4 5 2 4 4 2 1 3 3 6 2 3 1 1 3 3 1 1 3 1 3 5 4 3 3 2 2 3 2 2 3 3 3 2 3 5 4 6 7 4 4 5 7 8 6 3 4 8 8 8 12 14 15 16 15 13 10 9 8 7 6 7 8 5 3 5 4 5 6 5 8 11 11 11 12 13 15 16 16 18 20
8 3 3 3 5 9 7 6 6 1 3 3 2 1 3 1 4 4 1 1 1 1 2 1 2 2 1 3 5 3 2 3 2 3 4 3 2 2 1 5 1 4 1 5 7 6 5 5 6 7 9 7 4 5 9 10 11 13 13 15 14 11 11 13 12 9 7 7 7 4 6 3 4 2 3 5 5 6 9 11 11 11 12 14 14 14 15 17
7 3 2 1 2 4 3 5 5 2 4 3 1 2 3 2 1 1 2 1 1 2 2 1 0 2 1 2 3 3 3 3 3 3 3 3 4 3 3 6 2 1 5 8 6 3 4 5 6 7 7 7 7 8 8 8 10 10 9 9 10 11 13 13 13 13 11 9 7 4 8 7 3 3 3 2 5 5 7 9 10 10 10 10 11 12 15 16
7 4 2 3 3 5 2 1 4 3 3 1 1 3 3 1 1 1 1 1 1 0 3 2 1 0 0 1 2 3 1 1 3 2 1 2 4 4 4 5 4 4 7 6 1 1 3 4 5 6 7 7 8 7 8 9 8 8 10 9 8 12 15 12 12 14 12 10 8 6 7 6 3 7 4 3 5 4 6 7 9 9 8 9 9 11 14 16
6 5 2 5 6 5 3 4 5 4 3 1 1 2 2 1 1 2 1 4 3 2 1 2 2 0 2 2 1 1 4 1 3 1 1 3 3 2 3 3 4 6 7 5 2 1 2 3 4 6 8 8 6 6 8 9 9 10 11 9 8 11 12 12 10 9 9 9 7 8 9 3 7 9 4 1 0 4 6 5 7 8 9 11 11 11 12 14
7 6 5 6 4 3 4 6 6 4 3 3 3 2 2 1 2 2 2 3 5 3 2 2 2 1 2 2 2 1 4 2 4 4 1 4 3 1 2 1 3 7 5 4 4 3 3 4 4 6 8 6 7 8 7 8 11 10 6 2 5 8 7 4 3 5 7 9 8 7 6 1 5 6 3 1 1 3 5 6 7 9 9 10 12 13 12 12
7 5 5 6 3 2 5 5 5 4 2 0 1 1 2 2 3 1 1 2 1 2 3 4 2 3 3 2 3 3 5 4 5 4 3 4 4 4 3 2 4 6 4 3 4 3 4 5 4 5 6 6 9 9 7 8 10 7 1 4 6 8 6 4 7 8 8 9 7 4 1 3 3 2 3 2 2 3 5 6 7 9 10 10 11 13 14 12
Wind_Direction
343 335 331 331 331 334 338 339 340 339 335 332 328 324 321 318 315 308 301 298 298 300 301 304 310 316 323 324 320 319 311 299 291 276 269 266 245 239 239 236 227 215 206 189 183 194 198 204 208 207 210 213 224 234 218 228 247 222 236 289 265 286 116 259 188 144 140 138 137 149 155 141 139 143 133 133 128 120 120 120 122 119 122 127 131 137 139 141
345 333 324 317 318 322 325 329 335 336 335 334 330 328 324 321 321 316 308 301 299 299 300 303 308 314 322 322 325 326 316 309 294 274 268 262 246 239 229 225 220 210 199 189 194 197 198 205 204 205 210 222 230 213 199 228 250 261 250 157 260 358 72 234 162 136 140 137 135 148 154 144 142 144 145 140 131 132 125 120 121 118 120 125 133 138 139 143
349 340 325 311 306 307 312 319 323 327 330 331 331 330 327 325 323 319 314 306 301 299 300 304 307 315 320 324 330 326 324 310 290 271 260 250 240 237 227 217 210 205 197 192 198 200 205 211 202 207 214 229 239 209 184 219 183 226 252 148 257 3 62 181 151 133 136 136 140 150 153 147 143 142 147 146 140 143 133 127 128 126 130 134 138 141 142 147
350 344 334 318 304 298 303 309 314 320 323 325 327 329 331 329 325 323 319 312 307 299 300 303 307 317 317 326 331 327 327 298 273 232 238 246 230 229 228 210 204 202 193 194 204 207 214 222 210 215 226 234 252 230 185 204 189 142 233 220 137 58 83 167 138 132 141 143 145 149 154 147 142 141 145 150 146 141 134 135 138 137 139 140 142 144 146 149
348 344 340 331 316 302 299 303 311 318 321 323 323 325 329 330 327 324 320 316 312 303 301 302 303 312 316 329 326 324 321 287 144 137 273 266 227 223 224 201 199 194 184 197 210 212 221 227 218 216 232 241 277 259 162 168 197 121 245 260 124 130 180 166 142 141 149 148 143 148 152 143 138 137 142 150 141 134 137 139 141 141 142 142 144 146 147 151
348 347 345 342 333 319 307 305 312 318 323 323 322 322 325 329 328 325 324 321 317 309 301 301 302 304 318 328 319 315 286 288 60 307 283 266 225 213 209 190 190 186 182 204 211 213 221 223 221 217 231 233 256 276 109 167 197 123 244 243 128 167 186 162 147 145 150 148 145 147 140 134 137 132 133 139 132 133 135 136 139 141 143 143 144 147 149 153
353 351 351 353 348 339 329 320 322 325 327 326 326 324 323 327 326 324 324 322 321 316 304 302 302 298 323 324 315 285 252 273 3 301 288 259 214 191 188 181 182 183 187 210 210 211 218 216 221 219 238 249 234 277 257 201 178 121 228 182 152 189 151 128 142 144 153 146 136 138 136 138 139 129 124 124 126 131 130 134 138 139 142 144 145 148 149 152
356 355 358 1 358 355 348 341 335 333 334 334 333 328 326 326 323 324 323 324 325 315 307 306 308 308 320 320 298 268 242 253 338 299 310 247 193 172 177 175 177 184 194 211 209 209 216 216 224 223 236 261 245 243 247 223 152 130 223 172 169 181 148 146 155 155 153 136 130 134 134 137 136 127 120 122 127 129 132 135 138 140 142 145 146 148 149 151
357 356 0 2 4 1 353 348 340 339 342 341 337 330 327 323 320 322 319 325 324 314 318 310 321 316 304 314 281 265 219 62 316 285 315 196 175 171 174 172 176 187 201 210 209 212 213 217 223 224 235 258 258 252 258 273 145 145 182 189 181 170 154 158 169 160 138 127 142 137 123 129 134 127 118 129 136 132 135 138 139 142 143 146 148 148 150 151
354 353 357 1 2 358 355 351 345 343 339 336 333 326 321 318 317 318 316 323 326 325 321 305 335 301 291 297 275 259 109 57 316 277 291 175 167 170 170 175 182 192 207 207 210 215 212 220 221 221 247 242 243 256 276 298 143 152 171 185 183 164 147 139 139 116 106 102 137 129 125 132 139 135 130 142 143 137 139 141 142 144 144 147 147 148 151 150
350 348 351 358 358 357 358 352 345 341 337 334 329 320 314 310 311 315 313 316 333 0 312 309 336 280 276 275 269 268 77 52 25 171 181 158 161 172 172 184 190 196 207 206 210 216 214 227 231 224 244 236 225 236 242 274 264 171 172 170 160 144 109 89 70 72 89 88 62 118 125 124 134 136 143 148 145 143 143 143 145 146 146 148 147 149 152 150
348 344 346 354 357 359 354 346 345 342 340 336 328 322 313 304 308 315 315 325 7 35 313 314 332 286 289 270 261 273 47 53 152 149 157 153 166 176 180 194 195 198 208 209 211 216 219 234 244 227 238 292 248 250 230 211 240 196 174 152 125 97 74 83 92 89 96 107 139 178 131 119 152 140 146 151 148 146 145 147 148 148 148 148 148 151 154 152
349 341 341 349 353 355 348 345 346 344 343 339 338 336 322 312 314 320 341 25 42 38 22 329 331 313 284 269 251 248 348 141 157 150 154 162 171 179 192 196 193 203 213 216 216 217 221 235 248 232 240 269 260 325 331 205 217 194 158 109 88 77 81 87 98 113 117 131 162 194 145 143 151 147 155 155 150 148 149 151 151 150 150 150 151 154 155 154
348 339 337 341 342 347 345 348 347 345 346 345 351 353 349 349 350 34 63 59 61 43 49 320 326 330 270 266 297 229 181 147 159 152 156 167 166 174 184 185 193 208 214 222 225 219 219 236 254 242 244 257 274 331 263 215 175 188 86 87 148 130 111 97 111 136 133 133 155 173 151 150 142 154 162 157 154 152 152 156 154 153 153 153 155 157 157 157
345 339 331 326 332 341 344 350 348 347 352 353 358 6 20 34 49 76 75 72 67 38 53 4 351 256 255 245 197 185 159 150 166 156 160 166 162 169 170 178 192 198 205 219 226 217 218 236 248 245 239 242 261 278 241 213 177 188 62 107 192 161 124 126 140 166 153 142 170 191 146 146 147 160 163 161 161 156 156 160 157 155 156 156 157 160 158 159
340 335 322 320 326 334 344 351 349 351 1 7 10 24 40 49 72 81 65 68 59 37 72 31 345 272 271 253 127 158 163 167 169 160 164 165 164 171 167 175 186 189 201 208 217 217 221 234 235 241 246 235 235 243 240 225 184 181 203 196 205 152 150 151 144 184 161 146 162 166 153 160 159 162 163 166 165 160 161 163 161 158 159 158 159 161 159 161
332 327 314 319 319 328 346 352 354 0 10 13 12 26 48 58 77 68 53 44 3 347 148 9 275 260 271 260 171 180 176 166 161 162 166 171 175 169 167 175 184 188 196 202 215 216 215 226 231 239 250 246 235 232 240 234 190 192 243 126 31 197 167 156 152 178 178 164 162 157 161 159 158 162 165 169 168 166 166 166 164 161 161 162 162 162 161 164
325 317 306 315 320 327 346 354 3 14 19 14 3 357 8 69 142 101 37 5 330 296 254 213 209 253 236 191 190 176 167 159 160 167 167 175 179 170 173 178 179 180 190 200 206 208 206 213 223 232 231 230 234 228 234 250 210 201 233 73 113 225 204 182 159 164 177 182 172 162 161 159 162 166 168 173 173 170 169 169 167 165 164 165 166 164 163 166
315 307 302 312 320 324 346 357 3 18 17 8 352 340 328 258 204 207 283 307 260 259 283 183 200 294 85 150 153 142 155 157 163 171 171 175 172 173 181 180 180 186 195 194 189 199 202 206 218 225 224 219 223 232 239 285 317 171 139 142 187 207 221 182 152 165 173 179 176 166 160 163 168 172 174 175 176 173 170 171 171 169 168 167 171 167 164 168
308 300 295 307 321 312 337 349 347 5 5 356 346 330 307 266 215 179 184 222 239 275 335 173 206 271 102 142 138 138 151 160 171 175 178 178 171 177 183 186 189 196 209 197 178 195 203 211 218 218 226 222 221 238 242 266 308 200 127 132 179 168 188 146 150 171 174 175 178 171 158 162 175 182 178 175 179 178 171 172 174 173 172 172 174 168 165 169
300 289 289 308 317 285 302 328 325 339 337 347 344 313 306 350 341 21 275 223 217 254 270 234 237 250 174 145 149 160 161 170 181 176 181 180 178 182 180 191 195 197 217 208 181 191 205 223 223 219 227 228 231 241 242 235 267 251 146 132 174 182 160 135 154 169 176 185 180 175 161 161 185 186 170 173 186 185 173 173 175 175 175 177 175 167 167 170
293 279 281 301 306 271 272 296 307 317 311 322 329 297 320 11 350 341 324 259 166 167 245 207 219 225 191 183 182 180 177 179 177 174 181 181 189 192 176 193 209 197 205 210 196 190 205 229 228 222 224 237 265 252 250 241 246 253 173 143 176 179 140 121 172 179 187 202 184 183 172 157 181 189 169 188 200 188 178 177 176 175 176 179 178 169 168 170
290 268 273 298 293 256 262 276 288 294 300 302 297 293 324 359 324 317 307 283 138 135 198 172 193 184 176 199 189 191 198 184 172 173 180 188 198 204 188 195 214 209 200 205 207 200 208 222 229 228 215 226 256 249 248 244 242 252 212 146 158 178 176 165 183 195 200 219 181 184 180 151 164 185 203 222 221 190 171 181 182 178 178 181 180 171 171 172
289 257 265 291 275 262 270 272 277 281 297 300 285 286 308 324 310 312 296 279 125 116 161 155 195 181 167 185 179 198 207 176 173 174 177 195 196 200 212 207 214 215 206 207 210 222 226 213 227 228 200 213 244 237 238 241 242 241 223 190 163 174 200 195 156 174 203 185 149 162 160 174 178 186 194 211 227 195 160 181 193 184 180 182 181 175 175 175
282 247 249 277 280 272 272 273 280 280 284 288 280 275 288 302 305 312 294 267 125 114 152 153 192 182 153 175 183 210 223 174 177 171 174 202 196 188 210 210 220 218 199 207 214 228 230 207 241 231 194 219 248 237 234 235 245 244 219 209 181 159 165 165 146 153 192 188 171 172 165 185 186 198 195 181 205 197 167 183 199 188 181 182 182 178 178 177
272 238 236 263 276 260 273 281 287 277 267 270 280 283 291 302 308 317 293 251 127 125 160 155 183 160 160 182 180 213 233 168 153 160 177 207 209 214 215 196 217 230 201 203 217 241 225 184 227 238 197 226 242 240 236 229 240 256 211 181 194 152 145 145 155 159 172 164 182 209 216 161 173 205 203 180 190 201 185 193 199 190 182 183 184 181 182 180
261 230 232 254 267 256 274 284 265 279 283 276 296 302 301 299 307 319 280 226 116 128 163 134 128 129 149 179 180 203 211 138 136 162 186 207 212 228 231 193 206 230 208 196 212 238 221 172 185 227 231 232 233 234 231 224 232 267 11 92 220 207 159 156 173 173 173 153 159 215 236 224 197 207 195 179 182 196 201 205 203 196 188 184 184 185 185 181
250 227 229 249 269 268 278 287 275 284 312 348 305 299 301 294 302 294 265 179 90 167 144 97 119 135 144 177 195 216 120 149 170 167 177 207 213 215 227 212 214 221 204 203 208 205 200 184 209 224 234 237 233 232 226 234 242 234 13 320 271 253 190 182 184 154 168 193 167 192 214 238 211 186 178 176 181 190 201 206 202 198 194 186 183 187 188 182
238 222 225 241 271 290 288 288 281 285 315 324 300 301 296 290 290 255 253 58 92 214 105 98 145 166 168 175 199 212 170 193 201 147 166 206 217 231 258 228 214 206 195 231 232 154 163 212 227 225 227 232 235 238 227 221 243 246 249 274 267 254 219 213 197 109 204 238 212 171 180 196 171 159 173 185 195 194 193 204 203 195 193 191 186 187 189 184
227 217 216 225 248 281 282 281 288 295 300 300 301 303 289 274 257 251 237 81 129 153 131 170 164 155 173 175 183 198 192 184 132 149 176 196 201 226 269 243 216 200 173 235 248 235 100 207 251 249 239 241 237 240 237 221 242 277 280 251 247 230 230 231 187 159 232 249 230 171 178 199 210 171 182 195 200 193 184 193 203 194 191 193 188 188 190 185
220 212 209 221 238 268 277 280 298 298 289 298 307 294 276 251 242 264 64 81 175 130 155 185 150 162 194 187 169 183 187 156 146 173 184 173 187 209 222 214 227 216 178 219 241 232 182 198 250 246 242 258 263 243 240 229 242 261 259 243 241 215 230 243 197 202 230 246 218 171 180 206 233 207 195 196 194 188 184 188 192 188 191 193 189 189 189 183
215 209 208 226 249 268 274 277 287 286 292 302 299 274 261 246 246 19 84 156 211 155 183 149 143 191 214 201 175 170 177 167 170 186 185 180 190 196 199 197 200 210 203 204 215 212 207 206 209 218 224 238 258 243 216 213 232 242 237 236 239 220 226 235 219 226 235 247 227 178 185 208 231 197 189 188 192 188 186 189 187 181 187 192 189 190 188 182
210 210 211 230 258 271 274 284 289 294 303 300 285 266 258 262 341 38 94 171 82 71 97 119 161 204 217 207 192 166 161 158 179 196 192 193 203 190 194 213 215 215 223 210 203 204 211 208 199 206 209 210 227 238 212 203 212 222 229 231 230 224 231 238 229 232 239 236 216 187 204 219 166 125 174 183 188 186 184 186 186 182 183 187 188 190 188 182
210 213 215 237 266 278 283 295 298 301 302 281 268 260 263 294 78 203 42 78 74 87 124 154 178 187 219 217 173 158 166 154 182 201 193 198 218 201 187 210 240 238 247 229 214 203 212 214 200 202 193 186 210 234 244 252 223 214 228 236 235 231 236 248 241 239 258 256 224 182 205 266 174 148 187 195 175 169 177 180 179 183 184 184 187 190 188 183
212 216 226 250 273 287 295 303 301 300 291 266 260 252 266 341 48 349 27 59 97 152 139 187 207 191 211 208 150 184 223 213 190 196 196 199 205 204 198 189 206 237 258 241 216 206 229 228 172 186 197 183 196 222 239 259 249 212 223 234 234 234 243 261 265 265 271 269 250 218 216 50 88 150 184 196 158 152 169 173 170 183 188 188 190 191 188 183
208 219 240 258 269 290 306 306 299 299 277 258 265 272 16 33 18 15 23 342 307 64 142 190 214 206 190 161 160 197 214 235 200 190 201 203 184 177 202 177 179 232 251 248 225 211 240 235 133 167 211 198 198 214 221 239 251 203 211 229 234 236 243 255 264 266 261 249 207 196 231 91 107 170 169 167 156 154 165 164 168 186 190 192 193 190 187 182
199 223 239 239 235 274 306 302 298 292 259 255 277 340 21 52 23 15 21 328 329 319 234 205 199 247 211 163 180 191 191 204 194 191 208 206 164 109 180 154 118 269 270 277 274 242 247 244 139 167 213 204 206 217 216 229 247 234 210 220 225 233 237 247 265 260 251 254 212 191 226 190 157 214 163 161 165 160 162 162 170 183 186 191 191 188 188 182
200 230 232 211 221 278 298 287 289 273 253 260 284 331 312 51 51 22 14 320 282 253 262 246 144 253 246 171 169 171 172 192 194 192 200 187 146 106 223 179 160 244 271 272 264 239 247 248 148 171 209 198 199 216 217 221 234 250 267 245 222 226 223 214 241 254 246 252 245 224 228 203 189 195 172 180 174 157 164 168 170 177 184 193 191 187 187 181
206 232 217 185 208 278 277 266 272 256 250 264 253 193 287 66 73 44 17 306 271 277 286 292 124 243 258 145 177 168 163 190 204 188 181 184 161 166 247 243 159 194 243 255 256 238 251 258 168 175 201 186 187 212 218 206 218 241 267 272 243 241 240 222 228 249 261 260 260 262 249 210 165 168 164 178 179 162 170 169 166 180 186 191 193 190 185 176
212 233 192 154 189 241 233 247 253 247 245 274 302 163 39 46 91 82 21 311 285 306 310 298 234 232 211 174 194 168 162 203 210 178 160 202 177 152 178 313 217 186 195 234 256 263 239 248 229 179 171 175 189 209 220 212 202 216 234 243 237 233 236 241 238 233 246 261 261 264 255 138 39 304 170 169 165 158 171 167 164 189 189 185 193 196 185 175
225 237 158 143 183 177 200 240 244 250 246 199 256 65 56 320 343 95 96 304 298 322 326 321 287 239 186 185 195 154 181 203 186 165 165 203 220 121 99 28 300 276 197 210 233 237 234 243 237 208 181 203 210 198 216 229 217 209 215 222 233 235 223 229 240 229 233 249 251 263 262 132 88 309 180 147 148 153 174 172 167 187 190 184 191 194 185 180
235 234 126 147 173 166 223 246 234 260 269 114 73 61 94 276 301 338 168 283 291 284 304 325 334 308 246 230 229 197 211 191 154 180 181 165 91 63 84 100 287 274 251 232 214 67 328 282 257 240 215 225 213 191 204 227 239 236 224 218 231 240 232 232 238 231 232 239 236 250 262 119 102 255 186 156 156 159 172 167 160 183 188 182 188 189 185 184
234 195 130 162 175 193 236 255 221 238 313 77 78 74 134 237 283 312 300 295 294 317 328 346 353 321 321 288 256 232 235 234 95 231 175 117 81 65 85 21 296 266 268 270 207 63 341 264 256 266 253 225 195 179 196 223 243 250 231 216 226 234 233 240 253 263 253 243 232 237 249 145 127 214 178 155 155 156 162 156 158 178 184 180 182 178 177 180
242 188 150 174 185 214 236 257 241 219 93 121 199 147 142 340 2 348 4 24 339 333 356 17 0 349 4 293 284 300 300 257 263 310 277 111 95 69 58 34 295 272 309 345 0 33 276 246 241 256 245 219 198 174 193 216 222 242 237 214 221 236 239 235 243 259 253 247 249 245 241 131 148 196 160 153 157 153 159 157 156 163 168 170 174 171 170 173
247 212 177 174 186 221 245 277 266 205 129 183 200 153 169 141 82 318 339 44 357 323 333 73 350 318 307 280 278 282 265 259 240 190 267 103 108 91 33 15 311 309 32 9 334 303 274 270 252 247 241 233 223 211 235 230 214 228 239 232 225 227 234 243 240 233 233 256 277 265 247 106 128 194 167 158 163 154 155 158 153 153 157 162 165 166 169 172
256 222 198 179 189 218 239 266 271 252 149 185 176 185 223 125 120 195 291 345 22 334 332 67 308 287 272 258 246 212 224 269 287 189 196 204 143 94 9 317 324 17 40 359 295 275 273 264 253 266 266 260 285 300 284 273 240 219 218 233 240 227 227 252 256 236 241 263 262 258 257 162 153 200 188 167 177 165 150 149 155 158 161 161 159 161 166 171
264 254 220 194 201 218 207 204 236 237 128 189 180 199 257 83 124 159 206 316 343 300 299 349 310 289 267 268 264 232 223 243 232 206 203 227 223 128 314 279 234 93 118 237 234 246 272 255 238 256 261 258 278 275 265 265 255 237 216 219 238 239 229 240 249 252 264 260 248 302 335 291 193 198 205 179 187 179 151 149 156 156 158 161 158 161 167 171
251 272 268 267 244 249 203 188 227 182 137 191 197 197 241 235 165 144 106 123 223 255 263 234 345 323 347 288 285 279 269 253 210 198 196 224 233 192 216 268 287 111 230 233 221 245 279 260 242 252 256 250 245 240 246 255 254 262 264 239 233 241 239 239 246 249 251 254 262 344 347 301 266 69 37 257 221 188 150 145 143 139 146 151 152 163 171 176
253 270 247 198 235 285 336 148 245 217 143 152 216 200 238 222 157 57 31 283 212 148 293 287 115 352 297 163 259 276 343 255 232 208 177 237 251 239 235 254 273 285 273 262 239 42 296 274 259 271 270 250 240 236 239 244 232 233 254 253 242 246 245 243 248 251 254 260 267 275 270 275 359 59 73 251 238 157 126 134 135 138 152 158 167 179 177 175
301 325 301 227 233 254 222 196 232 224 144 150 224 188 257 285 97 88 52 313 324 97 253 272 120 42 336 88 195 241 99 157 264 67 107 256 260 247 248 251 260 273 285 299 331 62 271 260 240 262 264 243 239 250 240 240 239 226 225 232 250 257 245 239 251 270 276 269 264 262 250 252 21 25 50 146 167 108 120 145 153 162 172 172 178 188 183 173
323 321 302 270 245 216 214 208 222 224 180 196 201 173 222 223 70 75 97 351 335 3 354 334 104 189 301 91 127 84 75 11 339 34 0 291 334 326 273 326 292 279 282 294 302 300 283 265 226 239 254 236 232 252 254 251 249 236 215 220 297 281 253 238 309 354 332 305 289 269 253 103 31 347 328 1 130 138 142 156 169 174 175 178 181 181 174 165
332 317 300 278 244 207 234 225 217 224 212 127 102 156 228 112 83 303 288 84 319 336 3 341 322 246 233 139 102 49 26 353 348 2 312 297 313 288 283 312 293 297 311 291 274 279 282 282 257 244 258 246 233 241 257 264 254 237 204 31 2 324 318 22 28 16 8 345 313 279 308 68 114 221 274 279 235 186 154 158 172 171 169 181 183 168 154 146
Height
1517 1516 1515 1515 1514 1513 1513 1513 1512 1512 1511 1511 1510 1510 1509 1509 1508 1508 1508 1507 1507 1506 1506 1506 1506 1506 1505 1505 1505 1504 1504 1503 1502 1501 1501 1500 1501 1501 1501 1501 1502 1503 1504 1504 1506 1508 1508 1509 1509 1510 1510 1509 1508 1506 1506 1506 1505 1505 1507 1514 1515 1508 1509 1508 1503 1501 1499 1502 1506 1508 1508 1509 1512 1513 1514 1515 1516 1516 1517 1518 1519 1521 1524 1528 1533 1538 1541 1544
1518 1516 1515 1515 1514 1513 1513 1512 1512 1511 1511 1510 1510 1510 1509 1508 1508 1508 1507 1507 1506 1506 1506 1506 1506 1505 1505 1505 1504 1504 1503 1502 1501 1500 1499 1499 1499 1499 1499 1500 1501 1502 1503 1504 1506 1507 1507 1508 1508 1509 1509 1507 1507 1505 1505 1506 1505 1505 1506 1513 1512 1505 1508 1506 1499 1498 1497 1501 1505 1507 1507 1508 1510 1511 1513 1514 1516 1516 1517 1518 1520 1523 1527 1531 1536 1539 1542 1545
1517 1516 1515 1515 1514 1513 1513 1512 1512 1511 1511 1510 1510 1509 1509 1508 1508 1507 1507 1506 1506 1506 1505 1505 1505 1505 1505 1504 1504 1503 1502 1502 1500 1498 1497 1497 1498 1498 1499 1499 1500 1502 1502 1504 1506 1507 1507 1507 1508 1508 1507 1507 1507 1504 1504 1506 1505 1505 1509 1515 1511 1505 1506 1503 1499 1498 1499 1502 1505 1507 1508 1508 1510 1510 1512 1514 1515 1516 1515 1518 1520 1524 1528 1532 1536 1540 1543 1546
1517 1516 1515 1514 1514 1513 1512 1512 1511 1511 1510 1510 1509 1509 1509 1508 1507 1507 1506 1506 1506 1505 1505 1505 1505 1505 1505 1504 1504 1503 1502 1501 1498 1496 1496 1496 1497 1497 1498 1499 1500 1501 1502 1504 1506 1507 1507 1507 1508 1507 1506 1505 1505 1504 1505 1507 1506 1505 1509 1512 1507 1504 1505 1502 1500 1500 1500 1502 1504 1507 1509 1509 1510 1511 1512 1513 1516 1516 1515 1518 1521 1524 1528 1532 1536 1540 1543 1546
1517 1516 1515 1514 1513 1513 1512 1512 1511 1511 1510 1509 1509 1508 1508 1508 1507 1507 1506 1506 1505 1505 1505 1505 1504 1505 1504 1504 1504 1502 1502 1500 1496 1496 1496 1495 1496 1496 1497 1498 1500 1501 1502 1505 1506 1507 1507 1507 1506 1506 1506 1504 1505 1505 1503 1505 1506 1506 1507 1504 1503 1503 1502 1501 1500 1501 1502 1501 1503 1505 1508 1509 1510 1512 1513 1513 1516 1517 1515 1518 1522 1525 1529 1532 1536 1539 1543 1546
1517 1516 1515 1514 1513 1513 1512 1512 1511 1511 1510 1509 1508 1508 1508 1507 1507 1506 1506 1505 1505 1505 1505 1504 1504 1504 1504 1504 1503 1503 1503 1499 1495 1496 1495 1495 1495 1496 1497 1498 1499 1501 1502 1505 1506 1506 1506 1506 1505 1504 1504 1502 1504 1503 1500 1504 1505 1508 1507 1500 1501 1501 1499 1499 1499 1501 1502 1501 1503 1504 1506 1508 1509 1512 1514 1513 1515 1516 1516 1519 1523 1527 1530 1533 1536 1539 1543 1546
1517 1516 1515 1514 1513 1513 1512 1512 1512 1511 1510 1509 1508 1507 1507 1507 1506 1506 1506 1505 1505 1504 1504 1504 1504 1504 1503 1503 1503 1503 1502 1498 1496 1496 1495 1494 1495 1495 1497 1498 1499 1501 1503 1505 1505 1506 1505 1505 1504 1502 1502 1500 1501 1502 1502 1501 1501 1506 1505 1499 1501 1500 1499 1500 1498 1500 1502 1502 1505 1506 1507 1508 1510 1513 1515 1514 1515 1517 1518 1521 1524 1528 1531 1535 1537 1540 1543 1546
1517 1516 1515 1514 1513 1513 1512 1512 1511 1511 1510 1509 1508 1507 1507 1506 1506 1505 1505 1505 1504 1504 1504 1504 1504 1504 1504 1503 1503 1501 1499 1498 1496 1495 1495 1494 1495 1495 1496 1497 1499 1501 1503 1505 1504 1505 1505 1504 1502 1501 1502 1501 1501 1502 1499 1495 1498 1505 1504 1499 1499 1499 1499 1500 1500 1500 1501 1503 1506 1507 1508 1509 1512 1513 1515 1516 1517 1518 1520 1522 1526 1529 1532 1535 1538 1541 1543 1546
1517 1516 1515 1514 1514 1513 1512 1512 1511 1511 1510 1509 1508 1507 1506 1506 1505 1505 1504 1504 1504 1504 1504 1504 1504 1504 1503 1502 1503 1500 1496 1497 1496 1496 1496 1495 1495 1496 1496 1497 1499 1501 1503 1504 1504 1505 1505 1503 1502 1500 1501 1501 1500 1497 1493 1493 1498 1501 1501 1499 1498 1496 1498 1500 1500 1500 1503 1505 1506 1510 1512 1512 1514 1515 1517 1518 1518 1520 1521 1524 1527 1529 1533 1536 1539 1541 1544 1546
1517 1516 1515 1514 1514 1513 1512 1512 1511 1510 1510 1509 1508 1507 1506 1505 1505 1504 1504 1504 1504 1504 1504 1504 1503 1503 1503 1502 1502 1498 1495 1497 1497 1496 1496 1495 1496 1496 1497 1499 1500 1502 1503 1504 1504 1504 1504 1502 1501 1500 1501 1501 1498 1493 1491 1493 1494 1495 1498 1498 1495 1494 1496 1501 1503 1503 1507 1509 1509 1512 1515 1516 1515 1516 1520 1520 1519 1521 1522 1524 1527 1530 1533 1536 1539 1542 1545 1547
1517 1516 1515 1514 1514 1513 1513 1512 1511 1510 1509 1508 1507 1506 1506 1505 1504 1504 1504 1503 1504 1504 1504 1503 1503 1503 1502 1503 1501 1497 1495 1498 1498 1497 1497 1496 1497 1497 1499 1500 1501 1503 1504 1504 1504 1504 1504 1503 1501 1501 1501 1498 1495 1492 1490 1491 1491 1491 1493 1495 1495 1495 1500 1506 1509 1511 1512 1516 1516 1515 1517 1519 1518 1518 1519 1519 1520 1521 1523 1525 1528 1530 1533 1536 1540 1543 1545 1547
1517 1516 1515 1514 1514 1513 1513 1512 1511 1510 1509 1508 1507 1505 1505 1504 1504 1504 1503 1503 1503 1504 1504 1503 1503 1503 1502 1502 1500 1497 1497 1499 1498 1498 1498 1498 1499 1499 1500 1502 1502 1503 1503 1503 1504 1504 1503 1503 1502 1501 1499 1497 1494 1491 1490 1490 1490 1489 1492 1500 1501 1500 1507 1511 1512 1515 1515 1521 1521 1518 1524 1527 1521 1520 1519 1518 1520 1521 1523 1525 1527 1531 1534 1537 1540 1543 1545 1547
1517 1516 1515 1515 1514 1513 1513 1512 1511 1510 1509 1507 1506 1505 1504 1504 1503 1503 1503 1503 1504 1504 1504 1504 1503 1503 1502 1501 1498 1497 1498 1499 1498 1498 1499 1500 1500 1501 1501 1502 1502 1503 1504 1503 1503 1504 1504 1503 1502 1500 1498 1496 1492 1491 1492 1489 1491 1494 1496 1507 1512 1510 1514 1513 1513 1515 1516 1522 1521 1520 1533 1533 1523 1520 1519 1519 1520 1521 1523 1525 1527 1530 1533 1537 1540 1543 1545 1547
1517 1516 1515 1515 1514 1513 1512 1512 1511 1509 1508 1507 1506 1505 1504 1503 1503 1503 1503 1503 1503 1504 1504 1504 1503 1503 1502 1500 1497 1497 1498 1499 1499 1499 1500 1501 1501 1501 1501 1502 1503 1503 1503 1503 1504 1504 1504 1504 1502 1500 1499 1496 1491 1491 1492 1488 1493 1498 1501 1511 1515 1516 1520 1514 1513 1516 1517 1523 1520 1521 1533 1532 1523 1521 1520 1519 1521 1521 1523 1525 1527 1530 1533 1537 1539 1542 1545 1547
1517 1516 1515 1515 1514 1513 1512 1511 1511 1509 1508 1507 1506 1505 1504 1504 1504 1503 1504 1503 1503 1504 1503 1504 1503 1503 1502 1498 1497 1497 1497 1499 1499 1499 1500 1501 1501 1502 1501 1502 1503 1503 1504 1504 1504 1504 1504 1504 1503 1500 1496 1495 1494 1494 1492 1489 1492 1498 1510 1521 1513 1511 1520 1516 1513 1515 1517 1522 1520 1523 1533 1532 1524 1521 1521 1520 1521 1522 1524 1525 1527 1529 1532 1536 1539 1541 1544 1547
1517 1516 1515 1515 1514 1513 1512 1512 1511 1509 1509 1507 1507 1506 1505 1504 1504 1504 1504 1503 1504 1503 1503 1504 1503 1503 1500 1496 1497 1498 1498 1498 1499 1500 1501 1501 1502 1502 1502 1503 1503 1503 1504 1503 1504 1504 1504 1504 1502 1498 1494 1493 1493 1493 1492 1490 1492 1498 1510 1520 1510 1507 1518 1518 1515 1515 1514 1519 1520 1522 1531 1532 1524 1520 1521 1521 1521 1522 1523 1525 1526 1530 1532 1535 1538 1540 1543 1546
1517 1516 1515 1515 1514 1513 1512 1512 1511 1510 1509 1508 1507 1506 1505 1505 1504 1504 1504 1504 1503 1503 1503 1503 1504 1504 1500 1496 1497 1498 1498 1498 1499 1500 1500 1501 1502 1502 1502 1503 1503 1504 1504 1504 1505 1503 1504 1503 1500 1498 1494 1492 1489 1490 1496 1496 1498 1504 1506 1514 1515 1511 1514 1517 1518 1517 1514 1517 1521 1521 1525 1527 1521 1518 1521 1521 1522 1523 1523 1525 1526 1529 1532 1534 1537 1539 1542 1545
1516 1516 1515 1515 1514 1513 1513 1512 1511 1510 1509 1508 1507 1506 1505 1505 1504 1504 1503 1503 1503 1503 1503 1502 1503 1503 1498 1496 1496 1496 1497 1498 1499 1500 1501 1501 1501 1502 1503 1503 1503 1504 1503 1503 1503 1502 1502 1500 1498 1496 1493 1493 1489 1489 1498 1496 1496 1506 1511 1518 1522 1516 1514 1515 1516 1515 1515 1517 1519 1522 1524 1524 1520 1518 1520 1521 1522 1523 1524 1525 1527 1529 1531 1534 1536 1538 1541 1544
1516 1515 1515 1515 1514 1513 1513 1512 1511 1510 1510 1509 1507 1506 1505 1504 1504 1504 1503 1503 1502 1501 1500 1500 1500 1499 1495 1494 1495 1496 1497 1498 1500 1500 1501 1501 1501 1502 1502 1503 1503 1503 1502 1501 1500 1499 1499 1498 1498 1499 1495 1492 1490 1487 1488 1487 1488 1498 1509 1517 1519 1519 1518 1513 1511 1510 1512 1516 1518 1520 1524 1524 1522 1520 1519 1521 1522 1523 1525 1526 1527 1529 1530 1533 1535 1537 1540 1543
1516 1515 1515 1514 1514 1513 1512 1512 1511 1511 1510 1509 1507 1505 1504 1503 1501 1501 1502 1502 1501 1499 1497 1497 1497 1495 1494 1494 1496 1497 1497 1499 1500 1500 1501 1501 1501 1502 1502 1503 1502 1501 1499 1496 1497 1496 1496 1499 1498 1496 1491 1487 1487 1483 1479 1481 1485 1491 1504 1513 1514 1518 1519 1512 1512 1511 1507 1514 1518 1517 1523 1525 1523 1521 1518 1520 1522 1522 1524 1526 1527 1529 1531 1532 1534 1536 1540 1543
1515 1515 1514 1514 1514 1513 1513 1512 1511 1511 1510 1509 1508 1506 1503 1501 1499 1499 1500 1499 1498 1498 1497 1497 1496 1495 1494 1494 1496 1496 1498 1499 1499 1499 1500 1500 1501 1500 1500 1501 1500 1500 1496 1490 1493 1493 1496 1499 1494 1487 1483 1480 1482 1480 1476 1482 1486 1487 1498 1513 1519 1520 1518 1512 1512 1511 1508 1515 1519 1516 1523 1529 1524 1521 1519 1521 1523 1521 1521 1524 1526 1528 1530 1532 1533 1535 1539 1542
1515 1514 1514 1514 1513 1513 1513 1512 1511 1511 1510 1510 1508 1506 1504 1504 1503 1502 1500 1496 1494 1497 1497 1497 1497 1496 1496 1496 1496 1496 1497 1496 1497 1499 1499 1500 1500 1498 1497 1498 1497 1496 1492 1489 1492 1495 1498 1497 1488 1480 1477 1478 1482 1480 1479 1485 1487 1485 1490 1508 1522 1520 1517 1518 1514 1512 1510 1514 1518 1516 1524 1531 1526 1521 1523 1524 1523 1522 1521 1523 1525 1528 1530 1532 1533 1535 1539 1541
1514 1514 1513 1514 1513 1513 1512 1511 1511 1510 1510 1509 1508 1506 1505 1505 1504 1503 1502 1496 1493 1496 1496 1496 1496 1495 1496 1496 1496 1496 1494 1492 1495 1497 1498 1499 1498 1496 1496 1496 1495 1493 1490 1490 1492 1496 1499 1492 1482 1475 1476 1483 1487 1485 1486 1488 1487 1484 1487 1503 1518 1518 1518 1521 1520 1517 1513 1512 1515 1516 1521 1529 1528 1526 1526 1526 1524 1521 1522 1524 1525 1527 1530 1532 1533 1535 1538 1540
1514 1513 1513 1513 1512 1513 1512 1511 1511 1510 1509 1508 1507 1507 1506 1506 1505 1503 1502 1494 1490 1493 1495 1495 1495 1493 1494 1494 1495 1494 1491 1491 1493 1495 1498 1498 1495 1496 1495 1492 1493 1492 1489 1488 1489 1493 1491 1482 1476 1474 1478 1486 1490 1489 1489 1491 1489 1483 1483 1494 1509 1519 1518 1513 1516 1519 1517 1517 1517 1519 1531 1535 1531 1531 1529 1526 1524 1522 1522 1525 1527 1528 1530 1533 1534 1535 1538 1540
1513 1513 1513 1512 1512 1512 1511 1511 1510 1509 1509 1507 1507 1507 1505 1506 1504 1503 1502 1494 1490 1493 1493 1495 1494 1492 1493 1494 1494 1493 1489 1489 1491 1493 1496 1496 1494 1494 1493 1491 1492 1490 1488 1488 1489 1490 1484 1476 1475 1476 1480 1488 1492 1490 1487 1488 1490 1484 1478 1481 1490 1507 1514 1509 1514 1523 1528 1530 1520 1520 1539 1543 1531 1531 1529 1525 1524 1523 1523 1526 1528 1528 1529 1532 1534 1535 1537 1540
1513 1513 1512 1512 1512 1512 1511 1510 1510 1510 1509 1507 1507 1506 1506 1506 1503 1504 1503 1492 1490 1492 1491 1493 1493 1491 1492 1493 1494 1493 1491 1488 1489 1493 1496 1495 1493 1492 1491 1490 1488 1487 1486 1486 1489 1486 1478 1474 1478 1480 1485 1491 1492 1490 1483 1483 1491 1489 1477 1474 1480 1493 1506 1509 1512 1524 1536 1537 1523 1516 1530 1540 1537 1533 1526 1523 1525 1524 1524 1526 1527 1527 1528 1531 1533 1535 1536 1538
1512 1512 1512 1512 1512 1512 1511 1510 1510 1510 1508 1507 1507 1506 1506 1505 1503 1505 1502 1496 1494 1492 1488 1490 1492 1491 1491 1492 1491 1492 1494 1491 1490 1494 1494 1494 1494 1492 1491 1488 1487 1486 1480 1485 1493 1485 1475 1479 1485 1486 1489 1492 1492 1490 1482 1479 1491 1492 1477 1474 1481 1486 1498 1508 1512 1520 1524 1524 1524 1519 1521 1534 1539 1532 1523 1521 1526 1528 1526 1527 1526 1526 1527 1529 1531 1533 1535 1536
1512 1512 1512 1512 1512 1511 1511 1510 1510 1509 1507 1507 1506 1506 1506 1504 1504 1504 1504 1507 1502 1489 1485 1489 1491 1491 1491 1492 1491 1489 1492 1491 1490 1493 1493 1494 1493 1491 1490 1487 1486 1485 1478 1485 1494 1483 1475 1485 1490 1489 1493 1493 1489 1485 1479 1479 1488 1487 1478 1480 1482 1482 1489 1498 1506 1514 1510 1512 1526 1523 1519 1534 1535 1524 1522 1524 1527 1530 1529 1526 1525 1525 1525 1526 1529 1532 1533 1535
1511 1511 1511 1511 1511 1511 1511 1510 1509 1508 1508 1507 1506 1506 1505 1504 1505 1502 1503 1508 1499 1486 1487 1490 1491 1492 1490 1491 1491 1489 1489 1488 1488 1491 1492 1493 1492 1490 1489 1484 1482 1483 1483 1485 1486 1480 1478 1484 1486 1487 1492 1490 1484 1479 1476 1481 1486 1480 1478 1483 1481 1481 1485 1488 1497 1509 1510 1512 1519 1514 1517 1536 1539 1527 1528 1531 1529 1527 1526 1524 1522 1522 1524 1526 1527 1530 1532 1534
1511 1511 1511 1511 1511 1511 1510 1509 1508 1507 1507 1507 1506 1505 1504 1504 1504 1504 1506 1504 1491 1485 1489 1490 1489 1489 1488 1488 1489 1487 1486 1486 1488 1490 1492 1491 1491 1491 1487 1484 1481 1482 1488 1488 1483 1481 1480 1483 1485 1485 1486 1483 1479 1478 1473 1476 1481 1479 1482 1487 1485 1485 1486 1488 1493 1504 1519 1520 1509 1505 1510 1525 1538 1534 1528 1526 1520 1516 1519 1522 1521 1519 1522 1524 1526 1528 1530 1531
1510 1510 1511 1511 1511 1510 1509 1508 1508 1507 1507 1506 1505 1504 1504 1502 1501 1505 1507 1495 1486 1487 1488 1486 1487 1487 1485 1485 1486 1485 1484 1486 1488 1489 1491 1490 1491 1490 1488 1489 1486 1484 1492 1494 1486 1483 1484 1489 1489 1485 1484 1481 1479 1481 1475 1475 1481 1485 1488 1490 1492 1495 1495 1498 1500 1505 1523 1522 1502 1498 1504 1517 1531 1527 1516 1514 1509 1507 1512 1516 1516 1517 1519 1522 1524 1526 1527 1530
1510 1510 1510 1510 1510 1509 1509 1508 1507 1507 1506 1505 1505 1503 1502 1502 1499 1499 1496 1489 1490 1490 1482 1482 1486 1485 1482 1482 1483 1483 1483 1486 1486 1486 1488 1488 1489 1489 1488 1490 1489 1492 1498 1495 1488 1487 1487 1488 1486 1485 1484 1483 1486 1488 1483 1482 1486 1489 1491 1493 1500 1510 1515 1520 1518 1514 1517 1510 1492 1488 1499 1516 1523 1510 1501 1504 1505 1504 1506 1509 1511 1514 1517 1520 1522 1524 1525 1528
1509 1509 1510 1510 1509 1509 1508 1508 1507 1506 1505 1505 1505 1501 1500 1504 1502 1492 1485 1486 1490 1485 1479 1482 1484 1482 1482 1483 1482 1480 1482 1486 1486 1484 1484 1484 1486 1486 1484 1483 1483 1488 1492 1488 1487 1490 1490 1486 1483 1486 1486 1483 1487 1491 1490 1488 1488 1491 1491 1494 1503 1515 1528 1534 1526 1518 1512 1501 1487 1483 1492 1507 1510 1503 1497 1497 1499 1500 1502 1507 1512 1513 1515 1518 1520 1522 1524 1526
1509 1509 1509 1509 1508 1508 1507 1507 1506 1505 1505 1505 1504 1502 1504 1504 1496 1486 1482 1483 1485 1483 1482 1484 1483 1484 1484 1483 1482 1479 1482 1487 1483 1483 1485 1485 1488 1485 1483 1484 1482 1481 1483 1483 1483 1484 1492 1491 1481 1482 1484 1481 1485 1486 1484 1481 1482 1485 1482 1485 1495 1502 1515 1525 1522 1519 1515 1502 1492 1490 1496 1501 1505 1506 1499 1492 1491 1495 1500 1506 1510 1513 1515 1517 1519 1521 1522 1525
1508 1509 1509 1508 1508 1508 1506 1506 1505 1504 1505 1504 1501 1501 1504 1499 1488 1484 1485 1483 1483 1483 1483 1484 1483 1487 1485 1481 1482 1480 1484 1487 1481 1482 1486 1486 1488 1487 1485 1486 1484 1482 1483 1485 1482 1478 1486 1483 1469 1471 1475 1475 1482 1481 1477 1480 1483 1481 1476 1483 1491 1488 1494 1504 1505 1504 1506 1509 1509 1506 1501 1496 1500 1504 1496 1491 1491 1493 1500 1504 1507 1512 1513 1515 1519 1519 1520 1523
1508 1509 1508 1508 1508 1507 1505 1505 1504 1503 1504 1502 1499 1497 1496 1493 1488 1487 1488 1485 1483 1482 1484 1486 1484 1484 1484 1483 1485 1482 1481 1483 1482 1483 1485 1481 1482 1484 1484 1482 1482 1483 1482 1485 1485 1481 1486 1479 1466 1472 1475 1471 1478 1478 1474 1482 1484 1478 1481 1486 1482 1475 1483 1498 1502 1495 1497 1512 1515 1510 1503 1495 1502 1506 1494 1492 1495 1494 1498 1503 1508 1513 1514 1515 1517 1517 1518 1521
1509 1508 1507 1507 1507 1506 1505 1504 1502 1503 1503 1499 1499 1495 1489 1488 1489 1487 1487 1486 1485 1483 1485 1488 1485 1484 1484 1485 1487 1484 1481 1482 1482 1484 1484 1482 1482 1485 1484 1483 1485 1486 1482 1485 1486 1480 1483 1483 1471 1475 1481 1474 1474 1477 1474 1475 1475 1477 1483 1480 1472 1474 1481 1495 1509 1507 1507 1513 1506 1500 1502 1502 1512 1513 1496 1492 1498 1497 1498 1501 1507 1513 1515 1516 1515 1515 1517 1519
1509 1508 1507 1506 1507 1505 1504 1503 1502 1503 1502 1498 1498 1496 1489 1487 1489 1488 1488 1487 1485 1484 1484 1485 1484 1484 1483 1483 1484 1482 1483 1486 1484 1484 1486 1487 1489 1490 1486 1485 1489 1489 1485 1487 1488 1478 1479 1486 1478 1474 1480 1476 1472 1477 1480 1476 1471 1473 1473 1467 1471 1487 1491 1494 1509 1513 1513 1515 1506 1498 1494 1495 1506 1508 1498 1496 1497 1497 1499 1500 1504 1509 1513 1515 1513 1514 1517 1518
1508 1507 1505 1504 1505 1505 1503 1503 1502 1501 1500 1497 1496 1494 1489 1487 1489 1489 1489 1488 1485 1486 1486 1482 1482 1483 1482 1483 1483 1479 1483 1488 1486 1486 1488 1488 1491 1491 1486 1485 1487 1488 1487 1486 1485 1479 1478 1488 1486 1474 1471 1473 1474 1479 1484 1481 1475 1473 1472 1469 1471 1480 1484 1488 1496 1501 1506 1511 1510 1508 1500 1494 1498 1496 1495 1498 1494 1493 1498 1499 1501 1505 1509 1513 1514 1515 1516 1517
1507 1503 1500 1502 1504 1504 1502 1502 1502 1499 1496 1495 1493 1491 1489 1488 1488 1489 1491 1488 1485 1487 1487 1482 1482 1484 1483 1483 1482 1479 1482 1486 1484 1485 1489 1488 1489 1490 1487 1487 1487 1486 1487 1486 1483 1481 1480 1486 1489 1478 1470 1476 1481 1480 1478 1478 1477 1478 1482 1483 1480 1477 1477 1483 1486 1486 1495 1504 1509 1513 1509 1503 1501 1493 1489 1491 1490 1492 1496 1498 1502 1505 1506 1512 1516 1518 1518 1518
1505 1500 1498 1502 1503 1503 1503 1502 1498 1494 1490 1490 1490 1490 1491 1491 1488 1488 1491 1489 1486 1486 1486 1483 1482 1483 1483 1483 1483 1481 1483 1485 1483 1486 1490 1490 1490 1492 1491 1491 1491 1487 1487 1488 1485 1484 1482 1483 1485 1481 1478 1480 1479 1472 1469 1469 1469 1473 1480 1482 1481 1477 1477 1491 1495 1484 1482 1492 1499 1505 1508 1505 1501 1495 1490 1489 1488 1490 1491 1494 1501 1505 1507 1510 1514 1517 1517 1517
1502 1498 1499 1502 1502 1503 1503 1498 1494 1490 1487 1489 1491 1491 1494 1494 1491 1489 1489 1488 1486 1486 1485 1484 1485 1484 1484 1485 1484 1482 1482 1483 1484 1486 1488 1487 1488 1493 1494 1494 1492 1489 1488 1486 1482 1481 1484 1485 1485 1480 1475 1473 1467 1462 1463 1464 1462 1466 1471 1473 1474 1474 1475 1491 1498 1486 1481 1485 1486 1491 1499 1498 1493 1490 1490 1489 1487 1489 1490 1493 1499 1503 1506 1507 1509 1513 1514 1516
1499 1497 1500 1502 1501 1502 1501 1497 1493 1489 1488 1491 1492 1493 1494 1494 1491 1490 1490 1489 1487 1487 1487 1487 1487 1488 1488 1487 1485 1484 1483 1485 1487 1487 1486 1488 1491 1495 1495 1494 1493 1490 1488 1486 1482 1484 1489 1491 1491 1486 1476 1468 1463 1460 1461 1464 1466 1471 1469 1467 1471 1472 1471 1477 1480 1478 1482 1483 1483 1491 1500 1500 1494 1488 1487 1487 1487 1489 1491 1494 1499 1504 1507 1508 1508 1510 1513 1516
1497 1496 1498 1500 1502 1501 1498 1496 1494 1490 1491 1494 1493 1494 1495 1494 1494 1493 1492 1492 1491 1490 1491 1492 1490 1490 1491 1489 1487 1486 1488 1492 1494 1490 1488 1491 1495 1497 1495 1495 1494 1490 1490 1491 1490 1492 1495 1494 1495 1497 1495 1487 1479 1476 1476 1473 1474 1476 1470 1465 1469 1469 1468 1471 1472 1477 1484 1482 1482 1490 1499 1502 1496 1488 1485 1486 1486 1488 1490 1491 1496 1502 1505 1508 1508 1510 1512 1515
1497 1496 1497 1497 1500 1499 1495 1493 1491 1490 1493 1495 1494 1494 1495 1495 1497 1497 1494 1494 1494 1492 1493 1494 1493 1492 1491 1491 1491 1490 1490 1494 1495 1494 1493 1494 1495 1497 1496 1496 1494 1491 1492 1496 1495 1494 1496 1496 1497 1502 1506 1505 1500 1496 1491 1482 1478 1477 1472 1468 1469 1467 1469 1472 1474 1481 1487 1483 1481 1486 1492 1498 1495 1488 1487 1487 1486 1488 1490 1490 1493 1497 1501 1505 1507 1509 1512 1514
1496 1496 1496 1495 1496 1496 1493 1491 1490 1489 1492 1495 1496 1495 1494 1494 1497 1498 1496 1495 1496 1495 1494 1494 1494 1493 1493 1494 1494 1494 1492 1492 1494 1496 1497 1497 1496 1496 1497 1496 1495 1494 1496 1499 1498 1495 1496 1496 1496 1499 1501 1500 1500 1497 1489 1482 1480 1478 1475 1473 1468 1464 1467 1473 1477 1480 1481 1483 1486 1485 1485 1493 1496 1493 1491 1491 1490 1490 1489 1491 1494 1496 1499 1503 1505 1509 1511 1513
1497 1495 1494 1494 1494 1492 1490 1491 1490 1489 1491 1494 1497 1497 1495 1495 1496 1497 1498 1497 1497 1496 1495 1495 1495 1496 1498 1497 1496 1496 1495 1494 1496 1498 1499 1499 1497 1496 1498 1496 1494 1496 1498 1498 1497 1495 1497 1498 1495 1495 1495 1492 1492 1491 1484 1481 1480 1474 1472 1472 1470 1468 1471 1478 1481 1478 1479 1488 1493 1485 1482 1490 1495 1494 1492 1493 1493 1492 1490 1492 1495 1496 1499 1502 1505 1508 1510 1512
1498 1495 1493 1495 1495 1492 1491 1491 1489 1489 1492 1494 1496 1498 1497 1497 1497 1498 1498 1497 1497 1497 1497 1498 1497 1497 1498 1498 1499 1500 1499 1499 1500 1499 1499 1501 1498 1497 1498 1495 1493 1495 1495 1493 1492 1493 1499 1500 1494 1492 1493 1490 1487 1486 1482 1481 1480 1476 1474 1474 1474 1476 1477 1480 1481 1478 1479 1489 1492 1489 1490 1493 1493 1493 1495 1497 1495 1492 1491 1493 1496 1499 1502 1504 1506 1509 1510 1512
1499 1497 1495 1496 1496 1494 1493 1494 1491 1490 1493 1495 1497 1498 1498 1498 1499 1499 1498 1498 1498 1497 1498 1501 1501 1499 1497 1498 1501 1503 1504 1509 1509 1502 1500 1502 1501 1499 1500 1499 1496 1494 1492 1490 1490 1494 1500 1501 1495 1494 1495 1491 1486 1484 1482 1482 1482 1482 1482 1480 1480 1481 1479 1480 1482 1478 1478 1484 1486 1488 1492 1492 1490 1492 1497 1500 1497 1492 1493 1496 1499 1503 1505 1506 1509 1510 1510 1512
1502 1501 1500 1498 1497 1495 1495 1495 1494 1493 1495 1498 1499 1499 1498 1499 1500 1500 1500 1501 1501 1499 1500 1501 1501 1500 1498 1498 1502 1503 1505 1510 1510 1503 1502 1503 1502 1500 1501 1501 1499 1496 1494 1494 1494 1496 1502 1503 1498 1497 1499 1494 1488 1486 1483 1483 1483 1484 1484 1483 1484 1485 1483 1483 1484 1483 1485 1488 1487 1488 1491 1494 1494 1496 1498 1500 1498 1495 1497 1500 1502 1505 1507 1508 1509 1510 1511 1512
1505 1505 1504 1501 1498 1496 1495 1494 1493 1494 1496 1498 1499 1500 1500 1500 1501 1502 1502 1503 1503 1502 1501 1501 1501 1501 1500 1500 1503 1503 1503 1504 1504 1502 1502 1502 1502 1501 1501 1500 1501 1499 1497 1499 1500 1498 1500 1502 1498 1499 1504 1500 1492 1489 1487 1484 1483 1483 1487 1490 1491 1491 1488 1487 1491 1494 1496 1497 1495 1493 1495 1498 1500 1501 1502 1501 1499 1498 1500 1502 1504 1506 1507 1508 1509 1509 1511 1512
1506 1506 1505 1504 1501 1499 1497 1494 1493 1495 1498 1499 1499 1501 1501 1500 1501 1503 1504 1505 1504 1504 1504 1503 1502 1502 1502 1503 1505 1506 1506 1505 1505 1504 1504 1502 1502 1501 1500 1500 1501 1501 1500 1501 1503 1501 1501 1502 1499 1501 1507 1503 1493 1491 1491 1490 1493 1498 1500 1499 1500 1499 1494 1493 1499 1502 1500 1502 1504 1501 1500 1501 1501 1503 1504 1503 1500 1499 1500 1502 1504 1506 1507 1508 1508 1508 1510 1513